CAPE
1015 691 492 315 223 402 359 68 112 595 1013 1170 1277 1251 1246 954 1159 950 938 394 1059 626 179 681 882 1172 1529 1584 1242 1379 1386 1315 1226
166 186 47 235 403 504 332 166 204 615 1173 1491 1579 1440 1637 1392 1228 941 997 502 866 932 430 730 799 1018 1312 1249 1129 1446 1354 837 1019
0 4 5 24 44 247 95 478 126 682 1137 1485 1650 1643 1728 1841 1819 1699 1272 1399 931 1448 781 294 13 383 1049 1298 1419 1197 1236 1496 746
0 3 3 16 14 0 4 87 156 69 1282 1554 1823 1808 1794 1757 1805 1972 1645 1484 1369 771 1116 810 17 0 168 1171 1349 1260 1444 1046 988
0 0 0 1 1 2 2 0 0 0 113 307 1549 1761 1755 1742 1914 1939 2064 1778 1571 1428 1069 1249 743 274 537 997 1454 1462 1306 1356 1537
0 0 0 0 1 1 2 0 1 0 0 9 76 764 1736 1815 1683 1795 1955 2034 1907 1855 1772 1555 1370 949 1515 1536 1270 1321 1338 1304 1605
0 0 0 0 0 0 0 0 0 0 2 13 2 16 485 1058 1603 1624 1623 1821 1864 1716 1807 1847 1560 1396 1688 1310 1548 1647 1502 1432 1434
0 0 0 0 0 0 0 0 0 0 0 0 0 0 35 83 97 1625 1903 1410 1450 1711 1793 1870 1899 1723 1462 1766 1487 1612 1516 1811 1680
0 0 0 0 0 0 0 0 0 0 0 0 0 0 1 0 279 432 862 1031 1257 1729 1687 1649 1864 1953 1892 1532 1932 1220 984 1355 1883
0 0 0 0 0 0 0 0 0 0 0 0 0 0 0 0 0 0 241 957 1474 1599 1526 1596 1717 1941 1992 1902 1774 1265 395 425 1246
0 0 0 0 0 0 0 0 0 0 0 0 0 0 0 0 0 0 3 122 218 738 1173 1291 1479 1781 2050 2173 2171 1756 1158 614 486
0 0 0 0 0 0 0 0 0 0 0 0 0 0 0 0 0 0 0 6 2 15 388 1018 1157 1268 1552 1944 2236 2060 1623 1274 883
0 0 0 0 0 0 0 0 0 0 0 0 0 0 0 0 0 0 0 0 0 0 0 118 799 1177 1396 1527 1750 2234 1982 1368 1402
0 0 0 0 0 0 0 0 0 0 0 0 0 0 0 0 0 0 0 0 0 0 0 0 103 330 1099 1231 1493 1712 1726 1532 1828
0 0 0 0 0 0 0 0 0 0 0 0 0 0 0 0 0 0 0 0 0 0 0 0 0 17 354 1090 1556 1655 1422 1156 917
0 0 0 0 0 0 0 0 0 0 0 0 0 0 0 0 0 0 0 0 0 0 0 0 0 0 0 77 1209 1434 1424 1252 619
0 0 0 0 0 0 0 0 0 0 0 0 0 0 0 0 0 0 0 0 0 0 0 0 0 0 0 54 477 601 1215 1206 680
0 0 0 0 0 0 0 1 0 0 0 0 0 0 0 0 0 0 0 0 0 0 0 0 0 0 0 0 0 34 2 23 0
0 0 2 0 0 0 0 1 2 1 2 0 0 0 0 0 0 0 0 0 0 0 0 0 0 0 0 0 0 0 0 0 0
3 0 6 0 0 0 0 0 2 2 2 3 2 1 0 0 0 0 0 0 0 0 0 0 0 0 0 0 0 0 0 0 0
CIN
-1 -7 -18 -41 -3 -12 -10 -22 -7 -15 -30 -12 -5 -12 -9 -15 -20 -8 -12 -54 -13 -17 -75 -28 -10 -4 -25 -11 -7 -8 -5 -14 -10
-114 -157 -105 -71 -9 -4 -30 -23 -9 -11 -35 -29 -17 -16 -3 -19 -28 -24 -2 -8 -10 -23 -42 -34 -41 -3 -19 -18 -15 -4 -5 -9 -7
0 0 -199 -253 -254 -80 -89 -21 -24 -5 -28 -36 -30 -14 -12 -4 -11 -15 -15 -8 -6 -2 -30 -71 -86 -59 -5 -6 -3 -5 -7 -5 -17
0 0 0 -63 -234 0 -74 -116 -82 -111 -13 -21 -19 -7 -6 -8 -12 -10 -17 -13 -8 -10 -10 -61 -44 0 -57 -4 -3 -3 -4 -9 -12
0 0 0 0 0 0 0 0 -11 0 -109 -84 -17 -3 -2 -6 -6 -8 -6 -12 -16 -14 -17 -13 -42 -72 -72 -7 -4 -7 -10 -7 -4
0 0 0 0 0 0 0 0 0 0 0 -255 -120 -61 -5 -2 -4 -1 -1 -12 -8 -5 -2 -18 -18 -14 -5 -7 -19 -6 -3 -14 -5
0 0 0 0 0 0 0 0 0 0 0 -210 0 -93 -66 -31 -5 -5 -3 -1 -7 -5 -5 -1 -10 -12 -8 -20 -6 -3 -2 -10 -15
0 0 0 0 0 0 0 0 0 0 0 0 0 0 -177 -185 -180 -4 -2 -7 -5 -5 -2 -5 -6 -10 -7 -6 -18 -2 -5 -5 -11
0 0 0 0 0 0 0 0 0 0 0 0 0 0 0 0 -24 -19 -12 -14 -15 -3 -5 -6 -1 -3 -14 -14 -1 -11 -16 -9 -8
0 0 0 0 0 0 0 0 0 0 0 0 0 0 0 0 0 0 -91 -9 -2 -3 -9 -10 -3 -2 -3 -7 -15 -27 -56 -56 -7
0 0 0 0 0 0 0 0 0 0 0 0 0 0 0 0 0 0 -106 -140 -144 -72 -16 -18 -11 -3 -2 -1 -2 -25 -43 -56 -55
0 0 0 0 0 0 0 0 0 0 0 0 0 0 0 0 0 0 0 -186 -60 -68 -92 -32 -14 -14 -8 -2 -1 -4 -31 -53 -44
0 0 0 0 0 0 0 0 0 0 0 0 0 0 0 0 0 0 0 0 0 0 0 -152 -31 -6 0 -2 -3 -1 -4 -34 -35
0 0 0 0 0 0 0 0 0 0 0 0 0 0 0 0 0 0 0 0 0 0 0 0 -157 -100 -29 -19 -3 0 -6 -13 -7
0 0 0 0 0 0 0 0 0 0 0 0 0 0 0 0 0 0 0 0 0 0 0 0 0 -207 -83 -19 -6 -12 -16 -22 -57
0 0 0 0 0 0 0 0 0 0 0 0 0 0 0 0 0 0 0 0 0 0 0 0 0 0 0 -104 -3 -9 -33 -20 -80
0 0 0 0 0 0 0 0 0 0 0 0 0 0 0 0 0 0 0 0 0 0 0 0 0 0 0 -36 -26 -47 -9 -2 -57
0 0 0 0 0 0 0 -1 0 0 0 0 0 0 0 0 0 0 0 0 0 0 0 0 0 0 0 0 0 -110 -79 -104 0
0 0 -1 0 0 0 -1 -1 -1 -1 -1 0 0 0 0 0 0 0 0 0 0 0 0 0 0 0 0 0 0 0 0 0 0
-1 0 -1 0 0 0 0 -1 0 -1 -1 -1 -1 0 0 0 0 0 0 0 0 0 0 0 0 0 0 0 0 0 0 0 0
Wind_Speed
5 13 12 9 10 13 13 17 13 11 11 8 7 6 6 16 31 12 3 11 21 7 20 20 17 8 10 16 12 19 10 22 24
10 11 12 19 15 10 13 19 21 13 11 10 8 7 6 5 10 31 7 13 12 5 8 9 8 8 11 18 16 17 14 22 23
14 15 14 12 9 11 11 26 23 13 11 10 9 9 7 5 7 14 29 24 9 12 4 7 13 22 16 16 14 17 15 20 21
14 15 15 15 13 13 13 11 22 26 11 8 10 10 9 9 6 7 4 18 15 12 13 10 6 13 6 15 10 11 16 22 22
10 12 12 13 14 19 15 8 14 17 17 18 9 13 13 11 10 7 4 3 6 6 6 7 2 4 11 12 12 12 17 19 20
8 9 11 10 9 13 9 16 19 19 17 16 21 23 9 13 14 12 10 5 2 2 3 4 16 16 9 10 22 25 12 23 25
8 8 8 9 10 11 11 8 14 18 21 22 19 19 22 29 13 12 11 12 7 5 5 3 3 20 2 6 9 11 8 8 24
9 8 10 11 11 12 12 13 15 16 17 17 18 20 22 24 21 31 19 19 22 18 11 9 9 10 21 3 9 10 9 7 8
10 9 10 11 12 13 14 16 18 17 17 19 19 18 21 24 21 16 23 27 30 28 26 22 17 15 18 29 28 29 9 4 8
10 11 12 13 14 15 16 17 18 18 17 20 21 22 20 23 23 23 25 28 29 28 28 28 29 24 22 28 33 37 36 29 22
12 12 13 15 16 16 17 18 19 20 19 20 20 21 23 21 22 24 26 26 26 28 31 31 32 33 32 31 32 33 40 39 35
15 16 16 18 19 19 19 19 19 20 21 21 21 23 24 25 25 26 26 27 28 30 29 31 35 36 37 35 34 33 33 34 39
17 18 19 20 21 22 21 23 24 23 23 23 23 25 26 26 27 28 30 30 31 31 31 32 32 36 38 41 41 35 31 30 35
19 20 21 22 23 23 25 26 27 28 27 28 28 28 29 29 29 30 30 30 31 32 34 35 36 37 38 40 40 40 39 32 32
21 22 23 23 24 25 25 26 28 29 30 31 32 33 33 33 32 32 32 34 33 34 34 37 37 38 38 38 38 39 41 40 36
21 22 23 24 25 27 27 27 28 30 31 32 34 35 36 37 37 36 35 35 35 35 34 34 36 36 37 39 35 39 36 40 40
19 21 23 24 26 28 29 30 31 32 33 34 35 37 38 39 40 41 40 38 36 36 35 35 36 37 37 35 34 33 35 34 29
18 21 22 23 25 27 29 29 31 32 33 34 37 38 39 40 40 41 42 42 41 39 38 37 38 39 38 39 39 36 35 36 39
18 20 20 22 25 26 28 29 31 32 33 34 37 39 40 40 42 42 43 45 47 46 47 47 46 45 43 44 46 47 46 45 43
16 19 20 23 26 26 28 29 31 32 34 36 37 39 41 42 43 44 45 45 48 52 49 48 48 47 45 44 47 47 46 44 39
Wind_Direction
212 166 180 228 209 182 166 164 165 152 159 170 176 171 166 165 220 278 47 129 175 315 245 258 270 16 77 131 94 172 90 180 191
283 282 268 257 194 197 219 166 168 164 159 174 189 208 232 164 264 212 284 142 129 358 356 306 320 116 92 143 132 137 120 181 189
298 292 284 292 267 255 182 180 169 174 172 175 197 229 230 216 163 160 236 248 295 295 35 258 300 249 153 132 128 150 135 174 182
304 298 297 259 302 288 268 257 246 249 192 202 228 240 237 242 203 171 166 265 280 286 295 314 28 142 25 232 105 116 149 194 242
320 318 313 301 277 270 250 262 264 265 267 271 241 247 251 249 252 252 201 203 288 303 306 302 48 72 144 146 134 137 166 179 202
317 335 326 319 303 277 295 307 262 262 272 278 277 266 214 254 258 258 259 223 220 253 297 309 284 286 306 305 230 211 156 199 212
308 323 326 332 310 302 307 316 296 270 283 279 285 289 272 256 238 243 252 267 265 273 278 280 292 279 294 151 161 165 158 154 203
299 316 324 318 313 312 316 311 323 314 300 286 285 278 278 273 273 242 268 270 270 278 280 279 283 290 277 252 172 180 170 164 160
297 307 319 322 322 315 316 316 320 326 322 279 285 290 286 285 287 286 276 268 263 269 271 276 279 279 279 264 266 211 197 275 300
304 299 304 315 320 321 319 322 326 321 319 303 299 282 293 292 295 295 283 275 270 271 272 272 270 275 277 273 264 251 251 271 281
300 302 301 305 312 316 315 322 325 325 322 321 315 298 295 299 300 299 288 284 282 278 273 273 271 272 272 273 272 271 256 258 267
296 296 300 300 304 307 310 315 319 320 317 316 314 310 305 304 302 298 297 290 285 283 284 278 271 270 270 273 275 276 276 274 268
293 296 298 298 299 300 303 306 308 308 306 308 310 310 308 308 307 302 294 292 289 286 283 281 281 275 270 268 268 277 280 279 276
293 295 297 298 299 298 299 302 301 298 299 298 302 304 306 306 306 303 300 299 295 291 283 279 278 277 275 273 273 273 276 279 277
289 292 295 298 298 300 302 304 301 298 296 300 299 298 298 299 301 302 301 296 294 294 291 284 282 280 278 278 280 278 278 277 277
291 293 296 298 298 298 300 302 303 300 300 301 299 297 295 294 294 296 297 296 294 293 292 289 286 283 282 281 288 283 287 280 277
297 299 299 302 302 300 300 302 301 301 302 303 301 297 295 294 292 290 290 291 292 291 290 289 287 285 284 286 290 294 284 285 291
303 304 304 306 306 305 304 306 306 305 305 305 300 299 298 296 295 291 289 287 286 287 286 286 286 285 285 284 283 283 285 283 286
309 309 312 313 312 311 310 309 309 309 309 308 304 300 298 297 296 294 291 287 285 283 282 281 282 280 281 281 278 277 277 280 282
306 307 314 316 314 316 315 314 312 313 312 309 305 302 300 298 296 293 292 290 286 282 282 282 280 281 279 280 279 276 277 282 285